223  
ASUS43 KGLD 240159  
RWRGLD  
 
GOODLAND FORECAST AREA HOURLY WEATHER ROUNDUP  
NATIONAL WEATHER SERVICE GOODLAND KS  
800 PM MDT WED SEP 23 2020  
   
..OFFICIAL OBSERVATIONS
 
 
 
CITY SKY/WX TMP DP RH WIND PRES REMARKS
 
GOODLAND KS CLEAR 66 44 45 MISG 30.00S  
HILL CITY KS CLEAR 73 52 47 S6 29.94S  
IMPERIAL NEB CLEAR 70 48 45 CALM 29.97R  
MCCOOK NEB PTCLDY 73 46 38 SW9 29.93R  
AKRON CO CLEAR 67 36 31 E3 30.08R  
BURLINGTON CO CLEAR 67 33 28 W5 30.05S  
LIMON CO CLEAR 59 32 36 NW3 30.14R  

 
   
..UNOFFICIAL OBSERVATIONS
 
 
 
CITY SKY/WX TMP DP RH WIND PRES REMARKS
 
NORTON KS FAIR 73 50 43 S9 29.96R  
SHARON SPRINGS N/A 69 37 31 S8 N/A  
YUMA CO FAIR 64 23 20 CALM 30.04R  

 
 
 
CLICK HERE TO GO TO PREVIOUS BULLETINS.

The Nexlab KS Page
The Nexlab CO Page
The Nexlab NE Page Main Text Page